Probability
0 0 0 0 0 0 0 0 0 0 0 0 0 0 0 0 0 0 0 0 0 0 0 0 0 0 0 0 0 0 0 0 0 0 0 0 0 0
0 0 0 0 0 0 0 0 0 0 0 0 0 0 0 0 0 0 0 0 0 0 0 0 0 0 0 0 0 0 0 0 0 0 0 0 0 0
0 0 0 0 0 0 0 0 0 0 0 0 0 0 0 0 0 0 0 0 0 0 0 0 0 0 0 0 0 0 0 0 0 0 0 0 0 0
0 0 0 0 0 0 0 0 0 0 0 0 0 0 0 0 0 0 0 0 0 0 0 0 0 0 0 0 0 0 0 0 0 0 0 0 0 0
0 0 0 0 0 0 0 0 0 0 0 0 0 0 0 0 0 0 0 0 0 0 0 0 0 0 0 0 0 0 0 0 0 0 0 0 0 0
0 0 0 0 0 0 0 0 0 0 0 0 0 0 0 0 0 0 0 0 0 0 0 0 0 0 0 0 0 0 0 0 0 0 0 0 0 0
0 0 0 0 0 0 0 0 0 0 0 0 0 0 0 0 0 0 0 0 0 0 0 0 0 0 0 0 0 0 0 0 0 0 0 0 0 0
0 0 0 0 0 0 0 0 0 0 0 0 0 0 0 0 0 0 0 0 0 0 0 0 0 0 0 0 0 0 0 0 0 0 0 0 0 0
0 0 0 0 0 0 0 0 0 0 0 0 0 0 0 0 0 0 0 0 0 0 0 0 0 0 0 0 0 0 0 0 0 0 0 0 0 0
0 0 0 0 0 0 0 0 0 0 0 0 0 0 0 0 0 0 0 0 0 0 0 0 0 0 0 0 0 0 0 0 0 0 0 0 0 0
0 0 0 0 0 0 0 0 0 0 0 0 0 0 0 0 0 0 0 0 0 0 0 0 0 0 0 0 0 0 0 0 0 0 0 0 0 0
0 0 0 0 0 0 0 0 0 0 0 0 0 0 0 0 0 0 0 0 0 0 0 0 0 0 0 0 0 0 0 0 0 0 0 0 0 0
0 0 0 0 0 0 0 0 0 0 0 0 0 0 0 0 0 0 0 0 0 0 0 0 0 0 0 0 0 0 0 0 0 0 0 0 0 0
0 0 0 0 0 0 0 0 0 0 0 0 0 0 0 0 0 0 0 0 0 0 0 0 0 0 0 0 0 0 0 0 0 0 0 0 0 0
0 0 0 0 0 0 0 0 0 0 0 0 0 0 0 0 0 0 0 0 0 0 0 0 0 0 0 0 0 0 0 0 0 0 0 0 0 0
0 0 0 0 0 0 0 0 0 0 0 0 0 0 0 0 0 0 0 0 0 0 0 0 0 0 0 0 0 0 0 0 0 0 0 0 0 0
0 0 0 0 0 0 0 0 0 0 0 0 0 0 0 0 0 0 0 0 0 0 0 0 0 0 0 0 0 0 0 0 0 0 0 0 0 0
0 0 0 0 0 0 0 0 0 0 0 0 0 0 0 0 0 0 0 0 0 0 0 0 0 0 0 0 0 0 0 0 0 0 0 0 0 0
0 0 0 0 0 0 0 0 0 0 0 0 0 0 0 0 0 0 0 0 0 0 0 0 0 0 0 0 0 0 0 0 0 0 0 0 0 0
0 0 0 0 0 0 0 0 0 0 0 0 0 0 0 0 0 0 0 0 0 0 0 0 0 0 0 0 0 0 0 0 0 0 0 0 0 0
0 0 0 0 0 0 0 0 0 0 0 0 0 0 0 0 0 0 0 0 0 0 0 0 0 0 0 0 0 0 0 0 0 0 0 0 0 0
0 0 0 0 0 0 0 0 0 0 0 0 0 0 0 0 0 0 0 0 0 0 0 0 0 0 0 0 0 0 0 0 0 0 0 0 0 0
0 0 0 0 0 0 0 0 0 0 0 0 0 0 0 0 0 0 0 0 0 0 0 0 0 0 0 0 0 0 0 0 0 0 0 0 0 0
Height
5623 5623 5622 5622 5621 5621 5620 5619 5619 5620 5621 5620 5618 5616 5614 5613 5612 5612 5611 5610 5610 5609 5608 5608 5606 5605 5604 5603 5602 5601 5600 5599 5598 5597 5596 5595 5594 5593
5609 5608 5608 5608 5608 5607 5607 5606 5604 5604 5605 5607 5605 5603 5601 5600 5600 5599 5598 5597 5597 5596 5595 5594 5593 5592 5592 5591 5590 5588 5587 5586 5585 5584 5582 5581 5581 5580
5595 5595 5595 5594 5594 5594 5593 5593 5591 5590 5591 5593 5591 5590 5589 5588 5587 5586 5586 5585 5584 5584 5583 5582 5581 5580 5579 5578 5577 5576 5575 5573 5572 5571 5570 5569 5568 5568
5582 5582 5582 5581 5581 5581 5580 5580 5579 5578 5578 5579 5579 5578 5577 5576 5575 5574 5574 5573 5573 5572 5571 5570 5570 5569 5567 5566 5565 5564 5563 5562 5560 5559 5558 5558 5557 5556
5568 5568 5569 5568 5569 5568 5568 5567 5567 5566 5565 5565 5566 5566 5565 5564 5563 5563 5562 5562 5561 5560 5560 5559 5558 5557 5556 5555 5554 5553 5552 5551 5549 5548 5547 5546 5546 5545
5555 5555 5555 5556 5556 5555 5555 5555 5555 5554 5553 5552 5553 5553 5553 5551 5551 5551 5551 5550 5549 5549 5548 5548 5547 5546 5546 5545 5544 5543 5541 5540 5539 5538 5537 5537 5536 5535
5543 5542 5543 5543 5543 5543 5543 5543 5543 5542 5541 5540 5541 5541 5541 5540 5539 5539 5539 5539 5538 5538 5538 5537 5537 5537 5536 5535 5534 5533 5532 5530 5529 5528 5528 5527 5526 5525
5531 5531 5531 5531 5531 5531 5531 5531 5530 5530 5530 5529 5529 5529 5530 5529 5528 5528 5528 5528 5529 5529 5528 5527 5527 5527 5526 5526 5525 5524 5522 5521 5520 5520 5519 5519 5517 5516
5520 5520 5519 5519 5519 5519 5519 5519 5519 5518 5518 5518 5518 5518 5519 5518 5518 5518 5517 5517 5517 5518 5517 5517 5517 5517 5517 5516 5516 5515 5514 5513 5512 5512 5511 5510 5509 5507
5509 5509 5509 5508 5508 5508 5509 5508 5508 5508 5508 5508 5508 5508 5508 5507 5507 5507 5507 5507 5507 5507 5507 5508 5508 5508 5508 5508 5507 5507 5506 5505 5505 5504 5503 5501 5500 5499
5499 5499 5498 5498 5498 5498 5498 5498 5499 5499 5498 5498 5498 5498 5498 5498 5497 5497 5497 5497 5498 5499 5499 5499 5499 5500 5500 5500 5499 5499 5498 5497 5497 5496 5495 5494 5493 5491
5490 5489 5489 5488 5488 5487 5487 5488 5489 5489 5489 5489 5489 5489 5489 5489 5489 5489 5489 5489 5489 5490 5491 5491 5491 5492 5493 5493 5492 5491 5491 5490 5490 5489 5488 5486 5485 5483
5481 5480 5480 5479 5479 5478 5478 5479 5480 5480 5480 5481 5481 5481 5481 5481 5481 5481 5481 5481 5482 5483 5483 5484 5484 5484 5485 5486 5486 5485 5484 5483 5483 5482 5481 5480 5478 5477
5473 5472 5472 5471 5471 5470 5470 5471 5471 5472 5473 5473 5473 5474 5474 5474 5474 5474 5474 5474 5475 5476 5476 5476 5477 5478 5478 5478 5479 5479 5478 5477 5476 5475 5474 5473 5472 5471
5465 5464 5464 5463 5463 5463 5463 5464 5464 5465 5465 5466 5466 5467 5468 5468 5468 5468 5468 5468 5468 5469 5469 5470 5471 5471 5472 5472 5473 5473 5472 5471 5470 5469 5468 5467 5466 5464
5457 5457 5456 5456 5456 5457 5457 5457 5458 5458 5459 5459 5460 5461 5461 5462 5462 5462 5462 5463 5463 5463 5463 5464 5464 5465 5466 5466 5467 5466 5466 5466 5465 5464 5462 5461 5459 5458
5450 5450 5450 5450 5450 5451 5451 5451 5452 5452 5453 5454 5454 5455 5456 5456 5456 5456 5456 5457 5458 5458 5459 5459 5459 5459 5460 5461 5461 5461 5461 5461 5460 5459 5457 5456 5454 5453
5444 5444 5444 5444 5445 5445 5445 5446 5446 5447 5448 5448 5449 5450 5450 5451 5451 5451 5451 5452 5452 5453 5454 5454 5455 5455 5456 5456 5457 5457 5457 5456 5456 5454 5453 5452 5450 5448
5438 5438 5438 5439 5439 5439 5439 5440 5440 5441 5442 5443 5444 5445 5445 5446 5446 5446 5447 5447 5448 5449 5449 5450 5451 5452 5452 5453 5453 5453 5453 5452 5452 5450 5449 5448 5447 5445
5433 5433 5433 5433 5433 5433 5434 5434 5435 5436 5437 5438 5439 5440 5441 5441 5442 5442 5443 5443 5444 5445 5445 5446 5447 5448 5449 5449 5449 5449 5449 5449 5448 5447 5445 5444 5443 5442
5428 5428 5428 5428 5428 5428 5429 5430 5431 5432 5433 5434 5435 5436 5437 5437 5438 5439 5439 5439 5440 5441 5442 5443 5443 5444 5445 5446 5446 5446 5446 5445 5444 5444 5443 5442 5441 5440
5425 5424 5424 5424 5424 5425 5425 5426 5427 5428 5429 5430 5431 5432 5433 5434 5435 5435 5436 5436 5437 5438 5438 5439 5440 5441 5442 5443 5443 5443 5443 5442 5441 5441 5440 5439 5438 5438
5422 5421 5421 5421 5422 5422 5423 5424 5424 5425 5426 5427 5428 5429 5430 5431 5432 5433 5433 5434 5434 5435 5436 5436 5437 5438 5439 5440 5440 5440 5440 5440 5439 5439 5438 5437 5436 5436
Wind_Speed
54 54 53 52 52 51 51 51 52 51 49 48 48 47 47 47 48 49 49 49 49 50 50 50 50 49 49 48 48 47 46 46 47 48 48 48 49 49
53 53 52 51 50 50 50 50 50 50 49 47 47 47 46 47 48 47 46 47 46 46 46 47 47 47 46 45 45 45 44 44 45 47 47 47 48 49
51 51 51 50 49 49 49 49 49 48 47 46 46 45 46 45 45 45 45 45 44 43 43 43 43 43 43 44 43 42 42 43 44 45 45 45 45 46
50 49 48 48 48 48 48 48 47 46 46 45 45 45 44 45 45 45 45 44 43 42 42 41 41 41 41 42 42 42 42 42 43 43 43 43 43 43
48 48 47 47 47 47 47 46 45 45 46 46 45 46 45 45 45 44 44 43 42 41 40 40 39 39 39 40 39 40 40 41 41 41 40 40 39 39
46 46 46 46 45 45 45 45 45 45 45 45 45 44 44 44 43 42 41 40 39 39 39 39 39 38 38 37 37 37 38 39 39 38 37 37 36 35
43 43 44 44 44 44 44 44 44 44 44 44 44 43 43 42 42 42 40 38 38 38 37 37 38 38 37 36 36 35 36 36 36 35 35 34 33 34
41 41 41 42 42 42 42 43 42 43 43 42 42 42 41 41 41 40 38 37 36 36 36 36 37 36 35 35 34 34 33 33 33 32 32 31 31 32
38 38 39 39 40 41 40 41 41 40 41 41 40 40 39 39 38 37 36 36 35 35 35 35 34 33 34 33 32 31 30 31 31 30 30 30 31 31
36 36 37 37 38 38 38 38 38 38 39 39 39 38 38 37 36 35 34 35 35 34 33 32 31 30 31 31 30 30 29 29 29 28 29 29 29 29
34 34 34 35 35 36 37 36 36 36 37 37 37 36 35 34 33 33 32 32 32 31 30 29 28 28 28 28 28 28 27 27 26 26 27 27 28 28
32 32 32 33 33 33 33 33 33 33 33 34 33 32 31 30 30 30 29 28 27 26 27 27 26 26 26 26 26 26 26 26 27 26 26 26 27 27
30 30 30 30 30 30 30 29 29 30 30 29 29 29 28 28 27 26 26 24 24 24 24 25 24 25 25 25 25 25 25 25 25 25 25 26 26 25
28 28 28 28 28 26 26 27 27 27 26 26 26 26 25 24 23 23 23 22 22 22 23 23 23 23 23 23 23 22 23 24 24 24 24 24 24 24
27 26 26 25 25 24 24 24 24 24 23 23 23 23 22 22 22 22 22 21 21 21 21 22 22 22 21 21 21 21 20 21 21 22 22 22 22 22
25 25 25 24 23 22 22 22 22 21 21 21 21 21 22 21 20 21 21 20 20 21 21 21 21 21 21 20 20 20 19 18 18 19 20 20 20 20
23 23 23 22 21 21 21 20 20 20 19 19 19 19 19 19 19 19 19 20 20 19 20 20 20 19 19 19 19 18 18 18 18 18 18 19 19 19
22 21 21 21 21 20 19 19 19 18 18 18 18 17 17 17 18 18 19 19 19 18 18 18 17 17 17 16 16 15 15 15 15 15 16 16 17 16
20 20 20 19 19 19 18 18 18 17 17 17 16 16 16 17 17 17 18 17 17 17 17 17 17 16 15 15 14 13 13 13 14 14 14 15 15 13
17 18 18 18 18 18 17 17 16 16 16 15 15 15 15 15 15 16 16 16 16 16 16 16 15 14 13 12 12 12 12 12 12 13 13 13 12 12
15 15 15 15 14 14 14 14 14 14 14 14 14 14 14 14 14 14 14 14 14 14 15 14 13 12 12 11 11 11 10 11 11 11 12 12 12 12
11 11 11 11 11 11 11 11 12 12 11 12 12 12 12 13 13 12 12 12 13 13 13 12 11 11 11 11 10 10 9 9 10 11 11 10 10 8
8 8 8 8 9 9 9 9 9 9 10 10 11 11 11 12 11 11 11 11 11 11 11 10 9 9 10 9 9 8 8 8 8 9 8 8 7 6
Wind_Direction
270 270 272 272 272 272 273 273 273 273 273 272 274 275 276 275 275 274 273 273 274 274 275 276 275 275 275 276 277 277 276 276 276 277 277 277 277 276
271 271 271 270 271 272 273 274 274 274 274 273 273 274 273 274 275 275 273 274 274 274 275 275 275 276 276 277 277 276 277 277 278 278 278 277 277 278
270 271 271 270 271 271 273 274 274 275 274 272 273 273 274 274 276 276 274 274 274 274 275 275 276 277 277 277 277 276 277 278 279 279 278 278 278 279
270 270 270 270 270 271 272 273 274 274 274 272 272 273 274 275 276 276 275 274 274 274 274 275 276 277 277 277 276 277 277 278 279 279 279 279 279 279
270 269 269 270 270 271 272 273 274 275 275 275 274 274 274 276 277 277 277 275 274 274 274 275 276 276 276 277 278 278 278 278 279 279 279 279 279 280
271 270 269 269 270 270 271 272 274 275 275 275 275 273 274 275 276 277 276 274 273 274 274 275 276 278 276 277 277 279 279 279 280 279 279 279 280 281
272 271 269 269 270 270 271 272 274 274 275 275 274 274 274 275 276 277 275 273 272 273 274 276 277 278 278 277 278 279 280 280 279 279 279 278 279 281
273 272 271 271 270 270 271 273 274 274 275 275 275 274 275 276 276 276 275 273 272 272 273 275 276 277 277 278 279 279 280 281 280 279 279 278 280 282
274 273 272 271 271 270 272 273 274 276 275 275 274 274 275 276 276 275 274 272 271 272 273 274 275 276 277 278 279 279 280 280 279 278 277 280 283 284
273 274 273 272 272 272 273 273 274 274 274 274 274 274 275 275 274 274 272 272 272 271 272 274 274 274 276 278 279 279 279 279 279 282 282 282 283 283
273 274 275 274 273 272 273 273 272 272 273 274 273 274 274 274 275 274 272 272 271 271 271 271 270 271 274 276 277 278 279 280 280 282 283 282 283 284
275 275 275 274 274 273 272 271 270 271 272 273 273 273 273 274 275 275 275 274 272 269 268 268 269 271 272 274 276 276 277 280 283 283 284 285 284 285
273 273 274 273 274 275 272 271 270 270 270 270 270 270 271 272 274 274 273 273 271 268 267 266 268 271 273 274 276 277 278 280 281 281 283 285 286 285
273 274 274 273 274 274 273 272 270 270 270 270 269 268 269 270 273 272 271 271 270 268 266 265 268 271 274 275 276 277 279 280 280 282 284 286 287 288
273 273 273 272 272 273 273 272 270 270 269 268 268 268 268 270 271 270 270 270 269 269 267 265 267 269 271 273 275 279 281 282 283 283 284 287 290 290
273 272 271 269 270 271 272 272 271 269 268 268 267 266 268 270 271 271 270 270 269 268 267 266 268 269 272 274 278 281 283 284 284 286 289 291 292 291
271 269 269 267 269 271 271 271 270 267 266 266 266 267 267 269 270 270 269 268 269 267 268 267 269 270 272 276 278 278 280 284 286 288 291 292 293 295
271 268 267 267 269 270 270 270 268 266 265 265 265 267 268 269 269 270 270 268 266 266 267 267 267 268 270 273 274 276 281 284 286 288 292 294 297 299
269 269 269 272 272 271 268 268 268 266 264 263 265 267 268 268 267 269 271 267 265 266 267 267 268 268 269 273 275 278 284 287 288 292 295 298 300 301
274 271 271 271 271 270 267 267 266 264 264 263 265 265 266 267 269 271 270 265 264 264 265 266 268 269 270 273 279 284 288 291 292 295 297 299 302 303
277 273 272 271 269 266 263 262 262 262 260 260 262 264 265 267 269 271 270 267 265 265 265 266 266 269 271 276 283 286 287 290 293 296 300 300 301 302
281 276 270 267 265 261 258 260 259 258 259 259 261 264 265 268 269 269 270 269 267 266 267 266 265 266 269 274 283 288 288 289 295 302 306 306 305 304
289 282 272 266 264 261 257 255 255 255 258 260 261 263 265 266 266 269 273 272 268 265 265 262 264 269 272 276 283 288 290 293 300 307 309 312 314 312